Terug naar catalogus

COSMOS 952

ActiefMilitairLEO
NORAD 10358·PAYLOAD·🇷🇺 Russia

Gelanceerd Sep 16, 1977 vanaf Baikonur Cosmodrome

Loading…

Volgende Passages (komende 24 uur)

TLE

VersSource: Space-Track

Epoch: Sep 14, 2026, 00:35 UTC

1 10358U 77088A   26257.02476460 -.00000073  00000-0  14832-4 0  9991
2 10358  64.9341 264.7510 0051544 336.6908  23.1814 13.83747529475470

Volg COSMOS 952 in realtime met AllMySat

Download on the App Store